• In Germany
  • List of Countries
  • For 7 days
  • Water Temperature
  • Satellite Maps
  • Weather Map
  • Weather Widgets
  • user-avatar
    Login

    Hourly Weather Rossoshino

    Today, 23 April, Monday

    Time Temperature Precipitation Wind Pressure Humidity
    00:00 +6°C° 0 mm 1 mps 699 mmHg 56%
    01:00 +6°C° 0 mm 1 mps 699 mmHg 58%
    02:00 +6°C° 0 mm 1 mps 699 mmHg 59%
    03:00 +5°C° 0 mm 1 mps 699 mmHg 62%
    04:00 +5°C° 0 mm 1 mps 699 mmHg 64%
    05:00 +4°C° 0 mm 1 mps 698 mmHg 66%
    06:00 +5°C° 0 mm 2 mps 698 mmHg 59%
    07:00 +7°C° 0 mm 2 mps 698 mmHg 52%
    08:00 +10°C° 0 mm 3 mps 698 mmHg 44%
    09:00 +12°C° 0 mm 3 mps 698 mmHg 38%
    10:00 +14°C° 0 mm 4 mps 698 mmHg 32%
    11:00 +16°C° 0 mm 5 mps 697 mmHg 27%
    12:00 +16°C° 0 mm 5 mps 697 mmHg 25%
    13:00 +17°C° 0 mm 5 mps 697 mmHg 23%
    14:00 +17°C° 0 mm 5 mps 696 mmHg 21%
    15:00 +17°C° 0 mm 5 mps 696 mmHg 22%
    16:00 +17°C° 0 mm 5 mps 696 mmHg 23%
    17:00 +17°C° 0 mm 4 mps 696 mmHg 25%
    18:00 +14°C° 0 mm 3 mps 696 mmHg 30%
    19:00 +12°C° 0 mm 3 mps 696 mmHg 36%
    20:00 +10°C° 0 mm 2 mps 696 mmHg 42%
    21:00 +10°C° 0 mm 1 mps 696 mmHg 45%
    22:00 +9°C° 0 mm 1 mps 696 mmHg 49%
    23:00 +8°C° 0 mm 1 mps 696 mmHg 52%

    Tomorrow, 24 April, Tuesday

    Time Temperature Precipitation Wind Pressure Humidity
    00:00 +8°C° 0 mm 1 mps 696 mmHg 54%
    01:00 +7°C° 0 mm 1 mps 696 mmHg 56%
    02:00 +7°C° 0 mm 1 mps 696 mmHg 58%
    03:00 +7°C° 0 mm 1 mps 696 mmHg 60%
    04:00 +6°C° 0 mm 1 mps 695 mmHg 62%
    05:00 +6°C° 0 mm 1 mps 695 mmHg 64%
    06:00 +8°C° 0 mm 1 mps 695 mmHg 58%
    07:00 +9°C° 0 mm 2 mps 695 mmHg 52%
    08:00 +12°C° 0 mm 2 mps 695 mmHg 46%
    09:00 +13°C° 0 mm 3 mps 695 mmHg 42%
    10:00 +16°C° 0 mm 3 mps 694 mmHg 38%
    11:00 +18°C° 0 mm 4 mps 694 mmHg 33%
    12:00 +19°C° 0 mm 4 mps 693 mmHg 30%
    13:00 +20°C° 0 mm 5 mps 692 mmHg 27%
    14:00 +22°C° 0 mm 5 mps 691 mmHg 23%
    15:00 +21°C° 0 mm 5 mps 691 mmHg 24%
    16:00 +21°C° 0 mm 5 mps 690 mmHg 26%
    17:00 +20°C° 0 mm 4 mps 689 mmHg 27%
    18:00 +18°C° 0 mm 3 mps 689 mmHg 32%
    19:00 +16°C° 0 mm 3 mps 689 mmHg 38%
    20:00 +14°C° 0 mm 2 mps 688 mmHg 43%
    21:00 +13°C° 0 mm 1 mps 688 mmHg 46%
    22:00 +12°C° 0 mm 1 mps 688 mmHg 49%
    23:00 +11°C° 0 mm 0 mps 689 mmHg 52%

    Day after tomorrow, 25 April, Wednesday

    Time Temperature Precipitation Wind Pressure Humidity
    00:00 +11°C° 0.1 mm 1 mps 689 mmHg 56%
    01:00 +10°C° 0.1 mm 1 mps 689 mmHg 60%
    02:00 +9°C° 0.1 mm 2 mps 689 mmHg 64%
    03:00 +8°C° 0.1 mm 2 mps 690 mmHg 68%
    04:00 +7°C° 0.1 mm 2 mps 690 mmHg 72%
    05:00 +5°C° 0.1 mm 3 mps 691 mmHg 75%
    06:00 +4°C° 0 mm 3 mps 692 mmHg 67%
    07:00 +4°C° 0 mm 3 mps 693 mmHg 60%
    08:00 +4°C° 0 mm 3 mps 693 mmHg 52%
    09:00 +7°C° 0 mm 3 mps 694 mmHg 43%
    10:00 +8°C° 0 mm 3 mps 694 mmHg 35%
    11:00 +9°C° 0 mm 3 mps 695 mmHg 26%
    12:00 +10°C° 0 mm 3 mps 695 mmHg 23%
    13:00 +11°C° 0 mm 3 mps 695 mmHg 20%
    14:00 +12°C° 0 mm 3 mps 695 mmHg 16%
    15:00 +12°C° 0 mm 3 mps 695 mmHg 16%
    16:00 +11°C° 0 mm 3 mps 695 mmHg 16%
    17:00 +12°C° 0 mm 2 mps 695 mmHg 16%
    18:00 +9°C° 0 mm 2 mps 695 mmHg 20%
    19:00 +7°C° 0 mm 2 mps 695 mmHg 25%
    20:00 +6°C° 0 mm 1 mps 695 mmHg 29%
    21:00 +5°C° 0 mm 1 mps 696 mmHg 31%
    22:00 +3°C° 0 mm 1 mps 696 mmHg 33%
    23:00 +1°C° 0 mm 0 mps 696 mmHg 35%

    26 April, Thursday

    Time Temperature Precipitation Wind Pressure Humidity
    00:00 +1°C° 0 mm 0 mps 696 mmHg 36%
    01:00 0°C° 0 mm 0 mps 696 mmHg 37%
    02:00 0°C° 0 mm 0 mps 696 mmHg 38%
    03:00 -1°C° 0 mm 0 mps 696 mmHg 39%
    04:00 -1°C° 0 mm 0 mps 696 mmHg 40%
    05:00 -2°C° 0 mm 0 mps 696 mmHg 40%
    06:00 +1°C° 0 mm 0 mps 696 mmHg 35%
    07:00 +4°C° 0 mm 1 mps 696 mmHg 31%
    08:00 +6°C° 0 mm 1 mps 696 mmHg 26%
    09:00 +9°C° 0 mm 1 mps 696 mmHg 26%
    10:00 +10°C° 0 mm 2 mps 696 mmHg 25%
    11:00 +13°C° 0 mm 2 mps 695 mmHg 25%
    12:00 +14°C° 0 mm 2 mps 695 mmHg 24%
    13:00 +15°C° 0 mm 2 mps 694 mmHg 24%
    14:00 +16°C° 0 mm 3 mps 693 mmHg 23%
    15:00 +17°C° 0 mm 3 mps 693 mmHg 24%
    16:00 +17°C° 0 mm 3 mps 692 mmHg 25%
    17:00 +17°C° 0 mm 3 mps 692 mmHg 27%
    18:00 +15°C° 0 mm 2 mps 692 mmHg 33%
    19:00 +13°C° 0 mm 2 mps 692 mmHg 40%
    20:00 +11°C° 0 mm 1 mps 691 mmHg 47%
    21:00 +11°C° 0 mm 1 mps 692 mmHg 50%
    22:00 +10°C° 0 mm 1 mps 692 mmHg 53%
    23:00 +10°C° 0 mm 1 mps 692 mmHg 56%

    27 April, Friday

    Time Temperature Precipitation Wind Pressure Humidity
    00:00 +9°C° 0 mm 1 mps 692 mmHg 59%
    01:00 +8°C° 0 mm 1 mps 692 mmHg 61%
    02:00 +8°C° 0 mm 1 mps 691 mmHg 64%
    03:00 +7°C° 0 mm 1 mps 691 mmHg 66%
    04:00 +6°C° 0 mm 1 mps 691 mmHg 68%
    05:00 +6°C° 0 mm 1 mps 691 mmHg 70%
    06:00 +8°C° 0 mm 1 mps 691 mmHg 62%
    07:00 +10°C° 0 mm 1 mps 691 mmHg 55%
    08:00 +12°C° 0 mm 1 mps 691 mmHg 47%
    09:00 +14°C° 0 mm 2 mps 691 mmHg 40%
    10:00 +14°C° 0 mm 3 mps 691 mmHg 33%
    11:00 +17°C° 0 mm 4 mps 690 mmHg 27%
    12:00 +16°C° 0 mm 5 mps 690 mmHg 26%
    13:00 +17°C° 0 mm 6 mps 690 mmHg 25%
    14:00 +17°C° 0 mm 7 mps 690 mmHg 24%
    15:00 +16°C° 0 mm 7 mps 690 mmHg 24%
    16:00 +15°C° 0 mm 7 mps 691 mmHg 23%
    17:00 +12°C° 0 mm 7 mps 691 mmHg 23%
    18:00 +10°C° 0 mm 6 mps 692 mmHg 27%
    19:00 +8°C° 0 mm 4 mps 692 mmHg 32%
    20:00 +7°C° 0 mm 3 mps 693 mmHg 36%
    21:00 +5°C° 0 mm 3 mps 694 mmHg 40%
    22:00 +5°C° 0 mm 2 mps 694 mmHg 45%
    23:00 +3°C° 0 mm 2 mps 695 mmHg 49%

    28 April, Saturday

    Time Temperature Precipitation Wind Pressure Humidity
    00:00 +4°C° 0 mm 1 mps 695 mmHg 52%
    01:00 +3°C° 0 mm 1 mps 695 mmHg 55%
    02:00 +2°C° 0 mm 1 mps 695 mmHg 59%
    03:00 +2°C° 0 mm 1 mps 695 mmHg 61%
    04:00 +1°C° 0 mm 1 mps 695 mmHg 64%
    05:00 +1°C° 0 mm 1 mps 695 mmHg 67%
    06:00 +3°C° 0 mm 1 mps 695 mmHg 57%
    07:00 +4°C° 0 mm 2 mps 696 mmHg 48%
    08:00 +6°C° 0 mm 2 mps 696 mmHg 39%
    09:00 +7°C° 0 mm 2 mps 695 mmHg 34%
    10:00 +8°C° 0 mm 2 mps 695 mmHg 30%
    11:00 +9°C° 0 mm 2 mps 695 mmHg 26%
    12:00 +10°C° 0 mm 2 mps 694 mmHg 24%
    13:00 +12°C° 0 mm 2 mps 694 mmHg 23%
    14:00 +12°C° 0 mm 2 mps 693 mmHg 22%
    15:00 +12°C° 0 mm 2 mps 693 mmHg 23%
    16:00 +12°C° 0 mm 2 mps 692 mmHg 24%
    17:00 +10°C° 0 mm 2 mps 692 mmHg 25%
    18:00 +9°C° 0 mm 2 mps 692 mmHg 28%
    19:00 +8°C° 0 mm 2 mps 692 mmHg 32%
    20:00 +7°C° 0 mm 1 mps 692 mmHg 36%
    21:00 +7°C° 0.1 mm 1 mps 692 mmHg 38%
    22:00 +6°C° 0.1 mm 1 mps 692 mmHg 40%
    23:00 +4°C° 0.1 mm 2 mps 692 mmHg 42%
    Show more